Location: Newark
(53.3269°N, 6.3133°W)
Time: 16:05:54
(UTC+00:00)

N. Korean satellite - Visible Passes

Search period start: 19 January 2020 00:00
Search period end: 29 January 2020 00:00
Orbit: 454 x 508 km, 97.2° (Epoch: 19 January)

Date Brightness Start Highest point End Pass type
(mag) Time Alt. Az. Time Alt. Az. Time Alt. Az.
19 Jan 9.9 05:10:41 10° ENE 05:12:19 13° E 05:13:57 10° ESE visible
19 Jan 6.4 06:42:38 10° N 06:46:07 66° WNW 06:49:38 10° SSW visible
19 Jan 6.9 17:23:54 10° S 17:27:18 67° WSW 17:30:44 10° NNW visible
20 Jan 6.9 06:17:07 10° NNE 06:20:37 64° ESE 06:24:08 10° S visible
20 Jan 9.9 18:34:00 10° WSW 18:35:36 13° W 18:37:13 10° WNW visible
21 Jan 8.3 05:51:48 10° NNE 05:55:02 33° E 05:58:17 10° SSE visible
21 Jan 7.6 07:25:25 10° N 07:28:20 24° WNW 07:31:15 10° WSW visible
21 Jan 9.2 18:07:06 10° SSW 18:09:52 23° W 18:12:39 10° NW visible
22 Jan 9.4 05:26:47 10° NE 05:29:22 19° E 05:31:57 10° SE visible
22 Jan 6.8 06:59:35 10° N 07:02:58 43° WNW 07:06:21 10° SW visible
22 Jan 7.9 17:40:57 10° S 17:44:12 42° W 17:47:32 10° NNW visible
23 Jan 10.1 05:02:48 10° ENE 05:03:36 11° E 05:04:25 10° E visible
23 Jan 6.4 06:33:58 10° NNE 06:37:30 82° WNW 06:41:06 10° SSW visible
24 Jan 7.4 06:08:30 10° NNE 06:11:59 51° E 06:15:29 10° S visible
24 Jan 9.7 18:24:45 10° SW 18:26:53 15° W 18:29:01 10° NW visible
25 Jan 8.7 05:43:15 10° NE 05:46:22 28° E 05:49:30 10° SSE visible
25 Jan 7.4 07:16:38 10° N 07:19:45 29° WNW 07:22:54 10° SW visible
25 Jan 8.9 17:58:11 10° SSW 18:01:10 27° W 18:04:11 10° NW visible
26 Jan 9.7 05:18:23 10° NE 05:20:40 16° E 05:22:56 10° SE visible
26 Jan 6.6 06:50:52 10° N 06:54:21 53° WNW 06:57:52 10° SSW visible
26 Jan 7.4 17:32:11 10° S 17:35:32 53° W 17:38:56 10° NNW visible
27 Jan 6.6 06:25:17 10° NNE 06:28:52 80° ESE 06:32:30 10° SSW visible
27 Jan 10.2 18:43:15 10° W 18:43:56 10° W 18:44:35 10° WNW visible
28 Jan 7.9 05:59:53 10° NNE 06:03:19 42° E 06:06:47 10° S visible
28 Jan 7.8 07:33:45 10° NNW 07:36:30 21° WNW 07:39:16 10° WSW visible
28 Jan 9.6 18:15:38 10° SW 18:18:08 19° W 18:20:41 10° NW visible
